{"data":{"norad_id":68328,"epoch":"2026-09-20T00:19:28.248096Z","epoch_age_seconds":90337,"freshness":"FRESH","line1":"1 68328U 26059H   26263.01352139  .00021304  00000+0  63991-3 0  9992","line2":"2 68328  53.1573 163.7956 0001170  81.8436 278.2699 15.34397542 27958","mean_motion":15.34397542,"eccentricity":0.000117,"inclination_deg":53.1573,"raan_deg":163.7956,"arg_perigee_deg":81.8436,"mean_anomaly_deg":278.2699,"bstar":0.00063991,"rev_number":2795,"period_min":93.84790841903,"perigee_km":461.91016674799,"apogee_km":463.51092507373,"semimajor_km":6840.8475459109,"source":"CELESTRAK","updated_at":"2026-09-20T09:00:43.884609Z"}}